DW4362 Weather Reports


time (UTC)temp
C
wind
direction
speed
KPH
gust
KPH
rain 1hr
cm
rain 24hr
cm
rain mn
cm
humidity
%
barometer
mb
20260510220147 28 175 8.0 8.0 0.00 0.10 0.03 67 1014.1
20260510214647 28 155 3.2 8.0 0.00 0.10 0.03 64 1014.0
20260510213147 29 195 0.0 4.8 0.00 0.10 0.03 65 1014.1
20260510211647 28 193 0.0 9.7 0.00 0.10 0.03 66 1014.0
20260510210147 28 209 4.8 8.0 0.00 0.13 0.03 67 1014.1
20260510204647 27 201 3.2 9.7 0.00 0.13 0.03 70 1014.1
20260510200146 30 170 3.2 4.8 0.00 0.13 0.03 64 1014.0
20260510194645 29 132 0.0 0.0 0.00 0.13 0.03 62 1014.1
20260510193145 30 127 0.0 0.0 0.00 0.13 0.03 62 1014.3
20260510191645 30 278 0.0 3.2 0.00 0.13 0.03 63 1014.4
20260510190145 29 55 0.0 3.2 0.00 0.13 0.03 64 1014.8
20260510184645 30 215 0.0 0.0 0.00 0.13 0.03 62 1014.9
20260510183144 29 274 0.0 0.0 0.00 0.13 0.03 63 1015.0
20260510181644 30 332 0.0 0.0 0.00 0.13 0.03 62 1015.0
20260510174644 28 295 0.0 0.0 0.00 0.13 0.03 66 1015.2
20260510173143 27 110 0.0 0.0 0.00 0.15 0.03 70 1015.3
20260510171643 27 356 0.0 0.0 0.00 0.15 0.03 70 1015.5
20260510170143 27 30 0.0 4.8 0.00 0.18 0.03 71 1015.7
20260510163143 27 209 3.2 4.8 0.00 0.33 0.03 68 1015.7
20260510161642 26 113 0.0 3.2 0.00 0.41 0.03 74 1015.8
20260510154642 27 6 0.0 0.0 0.00 0.84 0.03 71 1015.8
20260510153141 27 151 0.0 8.0 0.00 1.22 0.03 70 1015.9
20260510151641 26 200 0.0 0.0 0.00 2.06 0.03 76 1016.0
20260510150141 25 193 3.2 3.2 0.00 2.77 0.03 81 1016.1
20260510144640 23 185 0.0 0.0 0.00 2.92 0.03 86 1016.2
20260510143141 23 15 0.0 3.2 0.00 2.92 0.03 88 1016.2
20260510141640 22 42 4.8 4.8 0.00 2.92 0.03 92 1016.2
20260510140140 22 191 0.0 0.0 0.00 3.00 0.03 95 1016.0
20260510134640 21 21 0.0 3.2 0.00 3.00 0.03 94 1015.8
20260510133139 20 345 0.0 0.0 0.00 3.05 0.03 95 1015.7
20260510131639 20 79 0.0 0.0 0.00 3.10 0.03 95 1015.7
20260510130139 19 79 0.0 0.0 0.00 3.12 0.03 95 1015.6
20260510124638 18 17 0.0 3.2 0.00 3.12 0.03 95 1015.5
20260510123138 18 160 0.0 0.0 0.00 3.12 0.03 95 1015.3
20260510120138 17 146 0.0 3.2 0.00 3.12 0.03 95 1014.8
20260510114638 17 284 0.0 0.0 0.00 3.15 0.03 95 1014.6
20260510113137 17 283 0.0 0.0 0.03 3.15 0.03 95 1014.4
20260510110137 17 287 0.0 0.0 0.03 3.15 0.03 95 1013.9
20260510103136 17 288 0.0 0.0 0.00 3.12 0.00 95 1013.5
20260510101636 17 287 0.0 0.0 0.00 3.12 0.00 95 1013.2
20260510100206 18 288 0.0 0.0 0.00 3.12 0.00 95 1013.2
20260510094635 18 349 0.0 0.0 0.00 3.12 0.00 95 1013.1
20260510093135 18 108 0.0 0.0 0.00 3.12 0.00 95 1012.9
20260510091635 18 108 0.0 0.0 0.00 3.12 0.00 95 1012.8
20260510090205 18 108 0.0 0.0 0.00 3.12 0.00 95 1012.5
20260510084705 18 108 0.0 0.0 0.00 3.12 0.00 95 1012.3
20260510083204 18 108 0.0 0.0 0.00 3.15 0.00 95 1012.3
20260510081704 18 108 0.0 0.0 0.00 3.17 0.00 95 1012.2
20260510074703 18 109 0.0 0.0 0.00 3.17 0.00 95 1011.9
20260510071703 18 109 0.0 0.0 0.00 3.20 0.00 95 1011.7
20260510070203 18 109 0.0 0.0 0.00 3.20 0.00 95 1011.9
20260510064703 19 108 0.0 0.0 0.00 3.20 0.00 95 1012.2
20260510063202 19 108 0.0 0.0 0.00 3.20 0.00 95 1012.3
20260510061702 19 108 0.0 0.0 0.00 3.20 0.00 95 1012.3
20260510060202 19 108 0.0 0.0 0.00 3.20 0.00 95 1012.5
20260510054702 19 108 0.0 0.0 0.00 3.20 0.00 95 1012.2
20260510053201 19 205 0.0 0.0 0.00 3.20 0.00 95 1012.0
20260510051701 19 205 0.0 0.0 0.00 3.20 0.00 95 1012.4
20260510044702 19 205 0.0 0.0 0.00 3.20 3.20 95 1012.8
20260510043201 19 205 0.0 0.0 0.00 3.20 3.20 95 1012.9
20260510041702 19 206 0.0 0.0 0.00 3.20 3.20 95 1013.0
20260510040201 19 205 0.0 0.0 0.00 3.20 3.20 95 1013.3
20260510034701 19 205 0.0 0.0 0.00 3.20 3.20 95 1013.4
20260510033201 19 206 0.0 0.0 0.00 3.20 3.20 95 1013.2
20260510031701 19 214 0.0 0.0 0.00 3.23 3.20 95 1012.5
20260510030202 19 312 0.0 0.0 0.00 3.23 3.20 95 1012.7
20260510024701 19 312 0.0 0.0 0.00 3.23 3.20 95 1012.8
20260510023202 19 110 0.0 0.0 0.00 3.25 3.20 95 1012.8
20260510021701 19 110 0.0 0.0 0.00 3.28 3.20 95 1012.8
20260510020201 19 110 0.0 0.0 0.03 3.33 3.20 95 1012.8
20260510014701 19 110 0.0 0.0 0.03 3.33 3.20 95 1012.9
20260510013200 19 110 0.0 0.0 0.03 3.33 3.20 95 1012.7
20260510011700 19 110 0.0 0.0 0.03 3.35 3.20 95 1013.1
20260510004659 20 110 0.0 0.0 0.00 3.35 3.17 95 1012.2
20260510003159 20 110 0.0 0.0 0.00 3.38 3.17 95 1011.9
20260510001659 20 111 0.0 0.0 0.03 3.38 3.17 95 1011.5
20260510000159 20 118 0.0 0.0 0.03 3.38 3.17 95 1011.5
20260509234658 20 118 0.0 0.0 0.05 3.38 3.17 95 1011.7
20260509233159 20 118 0.0 0.0 0.05 3.38 3.17 95 1011.9
20260509231659 20 166 0.0 0.0 0.03 3.35 3.15 95 1011.8
20260509224658 20 79 0.0 3.2 0.00 3.38 3.12 95 1011.7
20260509221658 20 79 0.0 0.0 0.00 3.43 3.12 96 1011.5